Location: Brienzwiler
(46.7508°N, 8.1014°E)
Time: 01:08:12
(UTC+00:00)

Cosmos 1461 - Pass Details

Date: 05 July 2020
Orbit: 502 x 664 km, 65.0° (Epoch: 11 August)

Event Time Altitude Azimuth Distance (km) Brightness Sun altitude
Rises 20:05:42 0° 316° (NW) 2,980 9.3 -6.4°
Reaches altitude 10° 20:08:09 10° 308° (NW) 2,078 7.6 -6.7°
Maximum altitude 20:12:27 35° 243° (WSW) 1,065 4.5 -7.2°
Drops below altitude 10° 20:16:45 10° 178° (S) 2,075 5.3 -7.7°
Enters shadow 20:18:11 - 172° (S) 2,598 5.8 -7.9°
